This demonstration page uses our WeatherBlox Daily Observations layout. Learn more.

Left ArrowRight Arrow

Hourly Observations for January 14, 2022

Temp ( °F °C ) Dew Point ( °F °C ) Humidity (%) Winds ( mph kmh ) Pressure ( in mb ) Visibility ( mi km ) Precip ( " mm )
12:53 am 00:53 Clear 36 2.2 8 -13.3 31 31 Calm 30.01 1016 10 16 0.00 0.00
1:53 am 01:53 Clear 33 0.6 8 -13.3 35 35 N 6 9 29.99 1016 10 16 0.00 0.00
2:53 am 02:53 Clear 34 1.1 8 -13.3 34 34 Calm 29.96 1015 10 16 0.00 0.00
3:53 am 03:53 Clear 32 0 9 -12.8 38 38 Calm 29.94 1014 10 16 0.00 0.00
4:53 am 04:53 Clear 28 -2.2 7 -13.9 41 41 NNW 5 7 29.93 1013 10 16 0.00 0.00
5:53 am 05:53 Clear 30 -1.1 8 -13.3 39 39 Calm 29.91 1013 10 16 0.00 0.00
6:53 am 06:53 Clear 29 -1.7 7 -13.9 39 39 SSE 6 9 29.93 1014 10 16 0.00 0.00
7:53 am 07:53 Clear 27 -2.8 7 -13.9 43 43 N 3 6 29.94 1014 10 16 0.00 0.00
8:53 am 08:53 Sunny 36 2.2 11 -11.7 35 35 Calm 29.92 1013 10 16 0.00 0.00
9:53 am 09:53 Sunny 48 8.9 13 -10.6 24 24 N 3 6 29.92 1013 10 16 0.00 0.00
10:53 am 10:53 Sunny 61 16.1 17 -8.3 18 18 W 15 24 29.88 1012 10 16 0.00 0.00
11:53 am 11:53 Sunny 65 18.3 16 -8.9 15 15 W 17 28 29.86 1011 10 16 0.00 0.00
12:53 pm 12:53 Sunny 69 20.6 15 -9.4 12 12 W 16 26 29.83 1010 10 16 0.00 0.00
1:53 pm 13:53 Sunny 72 22.2 14 -10 11 11 W 17 28 29.78 1009 10 16 0.00 0.00
2:53 pm 14:53 Sunny 75 23.9 14 -10 10 10 W 13 20 29.75 1007 10 16 0.00 0.00
3:53 pm 15:53 Sunny 76 24.4 15 -9.4 10 10 W 18 30 29.75 1007 10 16 0.00 0.00
4:53 pm 16:53 Sunny 76 24.4 15 -9.4 10 10 WNW 16 26 29.76 1008 10 16 0.00 0.00
5:53 pm 17:53 Mostly Sunny 75 23.9 17 -8.3 11 11 WNW 14 22 29.77 1008 10 16 0.00 0.00
6:53 pm 18:53 Clear 71 21.7 17 -8.3 13 13 N 10 17 29.82 1010 10 16 0.00 0.00
7:53 pm 19:53 Hazy 66 18.9 20 -6.7 17 17 NNE 24 39 29.89 1012 6 10 0.00 0.00
8:53 pm 20:53 Cloudy with Haze 61 16.1 23 -5 23 23 NNE 26 43 29.96 1015 4 6 0.00 0.00
9:53 pm 21:53 Cloudy with Haze 56 13.3 26 -3.3 32 32 NNE 31 50 30.00 1016 3 5 0.00 0.00
10:08 pm 22:08 Cloudy with Haze 55 12.8 27 -2.8 34 34 NNE 33 54 30.02 1017 3 4 0.00 0.00
10:31 pm 22:31 Mostly Cloudy with Haze 53 11.7 27 -2.8 37 37 NNE 32 52 30.06 1018 3 5 0.00 0.00
10:51 pm 22:51 Hazy 52 11 27 -3 38 38 NNE 29 46 30.09 1019 4 6 0.00 0.00
10:53 pm 22:53 Hazy 52 11.1 27 -2.8 38 38 NNE 28 44 30.05 1018 5 8 0.00 0.00
11:13 pm 23:13 Mostly Cloudy with Haze 51 10.6 27 -2.8 39 39 NNE 26 43 30.13 1020 6 10 0.00 0.00
11:53 pm 23:53 Cloudy 49 9.4 27 -2.8 43 43 NNE 24 39 30.10 1019 8 13 0.00 0.00

Powered by AerisWeather